Regional Weather Roundup
Issued by NWS

Home | Current Version | Previous Version | Text Only | Print | Product List | Glossary Off
Versions: 1 2 3 4 5 6 7 8 9 10 11 12 13 14 15 16 17 18 19 20 21 22 23 24 25 26 27 28 29 30 31 32 33 34 35 36 37 38 39 40 41 42 43 44 45 46 47 48 49 50

000
ASUS43 KIND 272009
RWRIN

WEATHER ROUNDUP FOR INDIANA
NATIONAL WEATHER SERVICE INDIANAPOLIS IN
300 PM EST TUE JAN 27 2015

NOTE: "FAIR" INDICATES FEW OR NO CLOUDS BELOW 12,000 FEET WITH NO
SIGNIFICANT WEATHER AND/OR OBSTRUCTIONS TO VISIBILITY.

* - STATION DOES NOT REPORT WEATHER SUCH AS PRECIPITATION OR FOG.

+ - STATION NOT QUALITY CONTROLLED BY THE NATIONAL WEATHER SERVICE.
    USE DATA WITH CAUTION...ESPECIALLY DEWPOINT AND RELATIVE
    HUMIDITY OBSERVATIONS.

INZ001>003-010>013-019-020-272100-
NORTHWEST INDIANA

CITY           SKY/WX    TMP DP  RH WIND       PRES   REMARKS
GARY /AIRPORT/ MOSUNNY   32  14  47 NE10      30.18S WCI  24
KNOX *+        SUNNY     30  -9  18 N7        30.15S WCI  23
LA PORTE +     SUNNY     32  12  43 N8        30.16R WCI  25
MICHIGAN CITY+ SUNNY     30   7  37 NW8       30.18R WCI  23
MONTICELLO +   SUNNY     28  15  56 N3        30.15S
RENSSELAER +   SUNNY     30  18  59 N3        30.16S
VALPARAISO     SUNNY     30   8  39 N9        30.16R WCI  22

$$

LMZ046-743>745-272100-
SOUTHERN LAKE MICHIGAN

STATION/POSITION TIME  TEMP WIND        PRES
                       AIR  DIR/SP/G
                 (UTC) (F)  (DEG/KT/KT) (MB)
MICHIGAN CITY    2000   27  350/ 11/ 12   N/A

$$

INZ004-005-014>016-021>024-272100-
NORTH CENTRAL INDIANA

CITY           SKY/WX    TMP DP  RH WIND       PRES   REMARKS
ELKHART        SUNNY     28   3  34 N7        30.16R WCI  21
GOSHEN         SUNNY     27  14  58 N7        30.14R WCI  19
LOGANSPORT +   SUNNY     27  12  54 CALM      30.16R
PERU/GRISSOM   SUNNY     26  13  59 W6        30.14R WCI  19
ROCHESTER +    SUNNY     32  14  47 N7        30.15R WCI  26
SOUTH BEND     SUNNY     30   7  37 N7        30.16R WCI  23
WARSAW +       SUNNY     27  14  59 N5        30.14R WCI  21

$$

INZ006>009-017-018-025>027-272100-
NORTHEAST INDIANA

CITY           SKY/WX    TMP DP  RH WIND       PRES   REMARKS
ANGOLA *+      SUNNY     25  10  54 VRB6      30.12R WCI  18
AUBURN +       SUNNY     28  12  50 NW3       30.14R
FORT WAYNE     MOSUNNY   26  12  55 NW8       30.14R WCI  18
HUNTINGTON +   SUNNY     25   9  50 N7        30.13S WCI  18

$$

INZ028-029-035-036-043>045-051>053-272100-
WEST CENTRAL INDIANA

CITY           SKY/WX    TMP DP  RH WIND       PRES   REMARKS
CRAWFORDSVL +  CLOUDY    28  15  58 N5        30.13S WCI  22
GREENCASTLE +  CLOUDY    30  21  69 N6        30.12R WCI  24
LAFAYETTE      CLOUDY    27  11  51 NE5       30.15S WCI  22
TERRE HAUTE    CLOUDY    31  26  82 N5        30.13F WCI  26

$$

INZ030>032-037>040-046>048-054>057-064-065-272100-
CENTRAL INDIANA

CITY           SKY/WX    TMP DP  RH WIND       PRES   REMARKS
ANDERSON       SUNNY     27  12  54 N12       30.13S WCI  16
CP ATTERBURY + CLOUDY    30  18  59 CALM      30.13R
COLUMBUS       CLOUDY    28  10  47 N9        30.13R WCI  20
GREENWOOD *+   CLOUDY    30   9  40 N5        30.12  WCI  25
INDIANAPOLIS   PTSUNNY   28  10  46 N7        30.12R WCI  21
-EAGLE CREEK   CLOUDY    29  11  47 N5        30.11S WCI  24
KOKOMO *+      SUNNY    N/A N/A N/A N3        30.14R
MARION +       SUNNY     25  12  57 N6        30.14S WCI  18
MT COMFORT *+  MOSUNNY   30   1  29 N8        30.12S WCI  23
SHELBYVILLE    CLOUDY    31  13  47 N7        30.11R WCI  24
ZIONSVILLE +   MOSUNNY   29  12  48 CALM      30.13R

$$

INZ033-034-041-042-049-050-058-059-272100-
EAST CENTRAL INDIANA

CITY           SKY/WX    TMP DP  RH WIND       PRES   REMARKS
MUNCIE         SUNNY     25  13  60 N6        30.12R WCI  18

$$

INZ060-061-067>069-081>083-085>088-272100-
SOUTHWEST INDIANA

CITY           SKY/WX    TMP DP  RH WIND       PRES   REMARKS
EVANSVILLE     CLOUDY    35  30  82 N9        30.14R HAZE    WCI  28
HUNTINGBURG *+ CLOUDY    32  28  86 CALM      30.13R
WASHINGTON +   CLOUDY    32  27  82 N5        30.13S WCI  27

$$

INZ062-063-066-070>080-084-089>092-272100-
SOUTH CENTRAL AND SOUTHEAST INDIANA

CITY           SKY/WX    TMP DP  RH WIND       PRES   REMARKS
BLOOMINGTON    CLOUDY    31  24  75 N5        30.11R WCI  26
NORTH VERNON + CLOUDY    30  12  47 N6        30.11  WCI  24

$$




USA.gov is the U.S. government's official web portal to all federal, state and local government web resources and services.